Location: *
(10.5081°N, 66.9194°W)
Time: 04:06:00
(UTC+00:00)

Lacrosse 5 - Pass Details

Date: 30 March 2020
Orbit: 715 x 724 km, 57.0° (Epoch: 21 May)

Event Time Altitude Azimuth Distance (km) Brightness Sun altitude
Rises 22:59:39 0° 319° (NW) 3,120 6.0 -6.0°
Reaches altitude 10° 23:02:06 10° 313° (NW) 2,201 5.3 -6.6°
Maximum altitude 23:06:56 45° 241° (WSW) 972 3.0 -7.8°
Drops below altitude 10° 23:11:47 10° 168° (SSE) 2,204 4.2 -9.0°
Sets 23:14:15 0° 162° (SSE) 3,125 4.9 -9.6°
